Weather History for K1F0 - May, 2012

Change the Weather History Date:

Wednesday, May 9, 2012

  Actual Average (KSPS) Record (KSPS)
Temperature  
Mean Temperature 64 °F 70 °F  
Max Temperature 78 °F 82 °F 99 °F (1933)
Min Temperature 51 °F 57 °F 45 °F (1984)
Cooling Degree Days 0 6  
Month to date cooling degree days 43  
Year to date cooling degree days 135  
Growing Degree Days 14 (Base 50)    
Moisture  
Dew Point 48 °F    
Average Humidity 58    
Maximum Humidity 100    
Minimum Humidity 26    
Precipitation  
Precipitation 0.06 in 0.11 in 1.88 in (1993)
Month to date precipitation 1.00  
Year to date precipitation 8.70  
Sea Level Pressure  
Sea Level Pressure 30.03 in    
Wind  
Wind Speed 1 mph (ENE)    
Max Wind Speed 8 mph    
Max Gust Speed -    
Visibility 10 miles    
Events      
T = Trace of Precipitation, MM = Missing Value Source: NWS Daily Summary

Daily Weather History Graph

Daily Weather History Graph

Search for Another Location

Airport or City:

Trip Planner

Search our weather history database for the weather conditions in past years. The results will help you decide how hot, cold, wet, or windy it might be!

Date:

Astronomy

May. 09, 2012 Rise Set
Actual Time 6:31 AM CDT 8:19 PM CDT
Civil Twilight 6:03 AM CDT 8:46 PM CDT
Nautical Twilight 5:30 AM CDT 9:19 PM CDT
Astronomical Twilight 4:55 AM CDT 9:54 PM CDT
Moon No Moon Rise 9:50 AM CDT (5/9)
Length of Visible Light 14h 42m
Length of Day
13h 48m
Waning Gibbous, 82% of the Moon is Illuminated
May 9
Waning Gibbous
May 12
Last Quarter
May 20
New
May 28
First Quarter
Jun 4
Full

Hourly Weather History & Observations

Time (CDT) Temp. Dew Point Humidity Pressure Visibility Wind Dir Wind Speed Gust Speed Precip Events Conditions
12:15 AM 60.8 °F 53.6 °F 77% 30.07 in 10.0 mi Calm Calm - N/A   Clear
12:35 AM 59.0 °F 53.6 °F 82% 30.06 in 10.0 mi Calm Calm - N/A   Clear
12:55 AM 59.0 °F 53.6 °F 82% 30.05 in 10.0 mi Calm Calm - N/A   Clear
1:15 AM 60.8 °F 51.8 °F 72% 30.05 in 10.0 mi North 3.5 mph - N/A   Clear
1:35 AM 60.8 °F 51.8 °F 72% 30.05 in 10.0 mi Calm Calm - N/A   Clear
1:55 AM 59.0 °F 51.8 °F 77% 30.05 in 10.0 mi Calm Calm - N/A   Clear
2:15 AM 57.2 °F 51.8 °F 82% 30.05 in 10.0 mi Calm Calm - N/A   Scattered Clouds
2:35 AM 59.0 °F 50.0 °F 72% 30.05 in 10.0 mi Calm Calm - 0.01 in   Scattered Clouds
2:55 AM 55.4 °F 50.0 °F 82% 30.05 in 10.0 mi Calm Calm - 0.01 in   Clear
3:15 AM 55.4 °F 50.0 °F 82% 30.05 in 10.0 mi Calm Calm - N/A   Clear
3:35 AM 55.4 °F 50.0 °F 82% 30.05 in 10.0 mi Calm Calm - N/A   Clear
3:55 AM 55.4 °F 50.0 °F 82% 30.05 in 10.0 mi Calm Calm - N/A   Clear
4:15 AM 55.4 °F 50.0 °F 82% 30.06 in 10.0 mi Calm Calm - N/A   Clear
4:35 AM 53.6 °F 51.8 °F 94% 30.06 in 10.0 mi Calm Calm - N/A   Clear
4:55 AM 51.8 °F 51.8 °F 100% 30.06 in 10.0 mi Calm Calm - N/A   Clear
5:15 AM 51.8 °F 51.8 °F 100% 30.06 in 10.0 mi Calm Calm - N/A   Clear
5:55 AM 51.8 °F 51.8 °F 100% 30.06 in 10.0 mi Calm Calm - N/A   Clear
6:15 AM 55.4 °F 48.2 °F 77% 30.06 in 10.0 mi Calm Calm - N/A   Clear
6:35 AM 53.6 °F 50.0 °F 88% 30.06 in 10.0 mi Calm Calm - N/A   Clear
6:55 AM 51.8 °F 51.8 °F 100% 30.07 in 10.0 mi Calm Calm - N/A   Clear
7:15 AM 53.6 °F 53.6 °F 100% 30.07 in 10.0 mi Calm Calm - N/A   Clear
7:35 AM 55.4 °F 53.6 °F 94% 30.08 in 10.0 mi Calm Calm - N/A   Clear
7:55 AM 59.0 °F 53.6 °F 82% 30.08 in 10.0 mi Calm Calm - N/A   Clear
8:15 AM 60.8 °F 53.6 °F 77% 30.09 in 10.0 mi Calm Calm - N/A   Clear
8:35 AM 62.6 °F 53.6 °F 72% 30.10 in 10.0 mi Calm Calm - N/A   Clear
8:55 AM 64.4 °F 51.8 °F 64% 30.10 in 10.0 mi Calm Calm - N/A   Clear
9:15 AM 66.2 °F 51.8 °F 60% 30.10 in 10.0 mi Calm Calm - N/A   Clear
9:35 AM 68.0 °F 50.0 °F 52% 30.10 in 10.0 mi Calm Calm - N/A   Clear
9:55 AM 69.8 °F 50.0 °F 49% 30.10 in 10.0 mi ENE 3.5 mph - N/A   Clear
10:15 AM 69.8 °F 48.2 °F 46% 30.10 in 10.0 mi Calm Calm - 0.01 in   Clear
10:35 AM 71.6 °F 50.0 °F 46% 30.10 in 10.0 mi ENE 3.5 mph - 0.01 in   Clear
10:55 AM 73.4 °F 44.6 °F 36% 30.09 in 10.0 mi North 3.5 mph - 0.01 in   Clear
11:15 AM 73.4 °F 44.6 °F 36% 30.09 in 10.0 mi East 4.6 mph - N/A   Clear
11:55 AM 75.2 °F 42.8 °F 31% 30.09 in 10.0 mi ENE 6.9 mph - N/A   Clear
12:15 PM 75.2 °F 41.0 °F 29% 30.08 in 10.0 mi Calm Calm - N/A   Clear
12:35 PM 75.2 °F 41.0 °F 29% 30.07 in 10.0 mi Calm Calm - N/A   Clear
12:55 PM 77.0 °F 41.0 °F 28% 30.07 in 10.0 mi East 4.6 mph - N/A   Clear
1:15 PM 77.0 °F 41.0 °F 28% 30.06 in 10.0 mi NE 3.5 mph - 0.01 in   Clear
1:35 PM 77.0 °F 41.0 °F 28% 30.05 in 10.0 mi Calm Calm - 0.01 in   Clear
1:55 PM 77.0 °F 42.8 °F 29% 30.05 in 10.0 mi NE 8.1 mph - 0.01 in   Clear
2:15 PM 77.0 °F 42.8 °F 29% 30.04 in 10.0 mi NE 6.9 mph - N/A   Clear
2:35 PM 77.0 °F 42.8 °F 29% 30.03 in 10.0 mi Calm Calm - N/A   Clear
2:55 PM 77.0 °F 44.6 °F 32% 30.02 in 10.0 mi SSE 3.5 mph - N/A   Clear
3:15 PM 78.8 °F 44.6 °F 30% 30.02 in 10.0 mi East 5.8 mph - N/A   Scattered Clouds
3:35 PM 78.8 °F 42.8 °F 28% 30.01 in 10.0 mi East 4.6 mph - 0.01 in   Scattered Clouds
3:55 PM 77.0 °F 41.0 °F 28% 30.00 in 10.0 mi ESE 3.5 mph - 0.01 in   Clear
4:15 PM 78.8 °F 42.8 °F 28% 29.99 in 10.0 mi NNE 4.6 mph - N/A   Clear
4:35 PM 78.8 °F 42.8 °F 28% 29.98 in 10.0 mi Calm Calm - N/A   Clear
4:55 PM 78.8 °F 42.8 °F 28% 29.97 in 10.0 mi Calm Calm - N/A   Scattered Clouds
5:15 PM 78.8 °F 42.8 °F 28% 29.97 in 10.0 mi Calm Calm - N/A   Scattered Clouds
5:35 PM 78.8 °F 42.8 °F 28% 29.97 in 10.0 mi ENE 4.6 mph - N/A   Scattered Clouds
5:55 PM 78.8 °F 41.0 °F 26% 29.97 in 10.0 mi Calm Calm - N/A   Clear
6:15 PM 78.8 °F 41.0 °F 26% 29.97 in 10.0 mi Calm Calm - N/A   Clear
6:35 PM 78.8 °F 41.0 °F 26% 29.96 in 10.0 mi Calm Calm - 0.01 in   Clear
6:55 PM 77.0 °F 42.8 °F 29% 29.96 in 10.0 mi Calm Calm - 0.01 in   Clear
7:15 PM 77.0 °F 42.8 °F 29% 29.96 in 10.0 mi ENE 4.6 mph - N/A   Clear
7:35 PM 73.4 °F 46.4 °F 38% 29.96 in 10.0 mi Calm Calm - N/A   Clear
7:55 PM 71.6 °F 50.0 °F 46% 29.96 in 10.0 mi Calm Calm - N/A   Clear
8:15 PM 69.8 °F 51.8 °F 53% 29.97 in 10.0 mi Calm Calm - N/A   Clear
8:35 PM 66.2 °F 53.6 °F 64% 29.97 in 10.0 mi Calm Calm - N/A   Clear
8:55 PM 64.4 °F 53.6 °F 68% 29.98 in 10.0 mi Calm Calm - N/A   Clear
9:15 PM 62.6 °F 53.6 °F 72% 29.98 in 10.0 mi Calm Calm - 0.01 in   Clear
9:35 PM 62.6 °F 53.6 °F 72% 29.99 in 10.0 mi Calm Calm - 0.01 in   Clear
9:55 PM 60.8 °F 53.6 °F 77% 29.99 in 10.0 mi Calm Calm - 0.01 in   Clear
10:15 PM 60.8 °F 53.6 °F 77% 29.99 in 10.0 mi Calm Calm - N/A   Clear
10:35 PM 60.8 °F 51.8 °F 72% 29.99 in 10.0 mi Calm Calm - N/A   Clear
11:15 PM 60.8 °F 51.8 °F 72% 29.99 in 10.0 mi Calm Calm - N/A   Clear
11:35 PM 57.2 °F 51.8 °F 82% 29.99 in 10.0 mi Calm Calm - N/A   Clear
11:55 PM 57.2 °F 50.0 °F 77% 29.99 in 10.0 mi Calm Calm - N/A   Clear